296P/Garradd (2020)

Japanese version
Home page
Updated on July 18, 2021

---------------------------------------------------------------------

* Profile

* Orbital Elements

Epoch 2020 Sept. 28.0 TT = JDT 2459120.5
T 2020 Sept. 17.92376 TT                                Rudenko
q   1.8234260            (2000.0)            P               Q
n   0.15070813     Peri.  350.12568     -0.26328914     +0.86669095
a   3.4971286      Node   263.64075     -0.85348371     -0.41400257
e   0.4785934      Incl.   25.23474     -0.44971588     +0.27829601
P   6.54
From 334 observations 2001 June 30-2021 June 18, mean residual 0".8.

* Magnitudes Graph

        m1 = 12.5 + 5 log d + 15.0 log r

---------------------------------------------------------------------

The orbital elements are published on M.P.E.C. 2021-N06.
The magnitudes graphs are made with Comet for Windows.

---------------------------------------------------------------------

Copyright(C) Seiichi Yoshida (comet@aerith.net). All rights reserved.